Flag for Germany Weather past 2 weeks in Karlsruhe, Baden-Württemberg, Germany

Now
55 °F

Sunny.


Feels Like: 55 °F
Forecast: 49 / 65 °F
Wind: 3 mph from North

Location: Karlsruhe - Baden Wurttemberg

Current Time: Aug 22, 2014 at 9:57:16 AM

Latest Report: Aug 22, 2014 at 9:20 AM


Visibility: 10 mi

Pressure: 30.01 "Hg

Humidity: 82%

Dew point: 50 °F

Location of KarlsruheLocation

Historic Weather in Karlsruhe — Graph

°F

Karlsruhe temperature yesterday

Maximum temperature yesterday: 68 °F (at 2:20 PM)
Minimum temperature yesterday: 48 °F (at 4:50 AM)
Average temperature yesterday: 59 °F

Past Weeks' High & Low Weather Summary

 TemperatureHumidityPressure
High82 °F (Aug 10, 3:50 PM)94% (Aug 8, 4:50 AM)30.15 "Hg (Aug 8, 4:50 AM)
Low46 °F (Aug 20, 6:50 AM)33% (Aug 11, 6:20 PM)29.65 "Hg (Aug 13, 9:50 AM)
Average64 °F69%29.94 "Hg
* Reported Aug 7 8:20 AM — Aug 22 8:50 AM, Karlsruhe, Weather by CustomWeather, © 2014

Note: Actual official high and low records may vary slightly from our data, if they occured in-between our weather recording intervals... More about our weather records

Advertising

Karlsruhe weather history for previous 24 hours

 ConditionsComfort  
Time TempWeatherWind HumidityBarometerVisibility
8:50 AM
Aug 22
54 °FSunny.5 mph82%30.01 "Hg10 mi
8:20 AM52 °FSunny.1 mph88%30.01 "Hg10 mi
7:50 AM52 °FSunny.2 mph82%30.01 "Hg10 mi
7:20 AM52 °FPassing clouds.5 mph82%30.01 "HgN/A
6:50 AM50 °FClear.2 mph88%30.01 "Hg10 mi
6:20 AM48 °FClear.2 mph87%30.01 "Hg10 mi
5:50 AM48 °FClear.1 mph87%30.01 "Hg10 mi
5:20 AM48 °FClear.2 mph87%30.01 "Hg10 mi
4:20 AM48 °FClear.2 mph87%30.01 "Hg10 mi
3:50 AM48 °FClear.No wind87%30.01 "Hg10 mi
3:20 AM50 °FClear.1 mph82%30.04 "Hg10 mi
2:50 AM50 °FClear.1 mph88%30.04 "Hg10 mi
2:20 AM50 °FClear.2 mph88%30.04 "Hg10 mi
1:50 AM50 °FClear.1 mph88%30.04 "Hg10 mi
1:20 AM50 °FClear.1 mph88%30.04 "Hg10 mi
12:50 AM52 °FClear.1 mph88%30.04 "Hg10 mi
12:20 AM52 °FClear.1 mph88%30.04 "Hg10 mi
11:50 PM
Aug 21
52 °FClear.No wind82%30.04 "Hg10 mi
11:20 PM54 °FClear.No wind77%30.04 "Hg10 mi
10:50 PM54 °FClear.No wind77%30.04 "Hg10 mi
10:20 PM55 °FClear.No wind72%30.04 "Hg10 mi
9:50 PM55 °FClear.2 mph72%30.04 "Hg10 mi
9:20 PM57 °FSunny.1 mph67%30.04 "Hg10 mi
8:50 PM59 °FSunny.1 mph59%30.04 "Hg10 mi
8:20 PM61 °FSunny.1 mph59%30.01 "Hg10 mi
7:50 PM64 °FSunny.No wind49%30.01 "Hg10 mi
7:20 PM66 °FSunny.No wind43%30.01 "Hg10 mi
6:50 PM68 °FSunny.3 mph40%30.01 "Hg10 mi
6:20 PM68 °FPassing clouds.5 mph38%30.01 "HgN/A
5:50 PM68 °FSunny.3 mph43%30.01 "Hg10 mi
5:20 PM66 °FPassing clouds.5 mph46%30.04 "HgN/A
4:50 PM68 °FSunny.2 mph40%30.04 "Hg10 mi
4:20 PM66 °FScattered clouds.5 mph46%30.04 "HgN/A
3:50 PM66 °FScattered clouds.5 mph46%30.04 "HgN/A
3:20 PM66 °FScattered clouds.5 mph46%30.04 "HgN/A
2:50 PM68 °FScattered clouds.6 mph38%30.07 "HgN/A
2:20 PM68 °FScattered clouds.7 mph40%30.07 "HgN/A
1:50 PM66 °FPassing clouds.6 mph46%30.07 "HgN/A
1:20 PM64 °FPassing clouds.6 mph49%30.07 "HgN/A
12:50 PM64 °FScattered clouds.5 mph56%30.07 "HgN/A
12:20 PM64 °FScattered clouds.3 mph60%30.07 "HgN/A
11:50 AM63 °FScattered clouds.5 mph59%30.09 "HgN/A
11:20 AM63 °FPassing clouds.5 mph64%30.09 "HgN/A
10:50 AM61 °FPassing clouds.6 mph63%30.09 "HgN/A
10:20 AM59 °FPassing clouds.6 mph77%30.09 "HgN/A
9:50 AM59 °FPassing clouds.7 mph72%30.09 "HgN/A
9:20 AM57 °FPassing clouds.5 mph82%30.09 "HgN/A
Weather by CustomWeather, © 2014

See weather overviewHow to use our weather pages